Year,Month,Day,Hour,Minute,Value (Times are PST for temperature in C)
2023,04,25,00,00,5.50
2023,04,25,00,01,5.50
2023,04,25,00,02,5.50
2023,04,25,00,03,5.40
2023,04,25,00,04,5.40
2023,04,25,00,05,5.40
2023,04,25,00,06,5.40
2023,04,25,00,07,5.40
2023,04,25,00,08,5.40
2023,04,25,00,09,5.40
2023,04,25,00,10,5.30
2023,04,25,00,11,5.30
2023,04,25,00,12,5.30
2023,04,25,00,13,5.30
2023,04,25,00,14,5.30
2023,04,25,00,15,5.20
2023,04,25,00,16,5.20
2023,04,25,00,17,5.20
2023,04,25,00,18,5.20
2023,04,25,00,19,5.10
2023,04,25,00,20,5.10
2023,04,25,00,21,5.10
2023,04,25,00,22,5.10
2023,04,25,00,23,5.10
2023,04,25,00,24,5.10
2023,04,25,00,25,5.10
2023,04,25,00,26,5.10
2023,04,25,00,27,5.10
2023,04,25,00,28,5.00
2023,04,25,00,29,5.00
2023,04,25,00,30,5.00
2023,04,25,00,31,5.00
2023,04,25,00,32,5.00
2023,04,25,00,33,5.00
2023,04,25,00,34,5.00
2023,04,25,00,35,5.00
2023,04,25,00,36,4.90
2023,04,25,00,37,4.90
2023,04,25,00,38,4.90
2023,04,25,00,39,4.80
2023,04,25,00,40,4.80
2023,04,25,00,41,4.80
2023,04,25,00,42,4.80
2023,04,25,00,43,4.70
2023,04,25,00,44,4.70
2023,04,25,00,45,4.70
2023,04,25,00,46,4.70
2023,04,25,00,47,4.60
2023,04,25,00,48,4.60
2023,04,25,00,49,4.60
2023,04,25,00,50,4.60
2023,04,25,00,51,4.60
2023,04,25,00,52,4.60
2023,04,25,00,53,4.50
2023,04,25,00,54,4.50
2023,04,25,00,55,4.50
2023,04,25,00,56,4.50
2023,04,25,00,57,4.50
2023,04,25,00,58,4.50
2023,04,25,00,59,4.50
2023,04,25,01,00,4.40
2023,04,25,01,01,4.40
2023,04,25,01,02,4.40
2023,04,25,01,03,4.40
2023,04,25,01,04,4.40
2023,04,25,01,05,4.40
2023,04,25,01,06,4.30
2023,04,25,01,07,4.30
2023,04,25,01,08,4.30
2023,04,25,01,09,4.30
2023,04,25,01,10,4.30
2023,04,25,01,11,4.30
2023,04,25,01,12,4.20
2023,04,25,01,13,4.20
2023,04,25,01,14,4.20
2023,04,25,01,15,4.20
2023,04,25,01,16,4.20
2023,04,25,01,17,4.10
2023,04,25,01,18,4.10
2023,04,25,01,19,4.10
2023,04,25,01,20,4.10
2023,04,25,01,21,4.10
2023,04,25,01,22,4.10
2023,04,25,01,23,4.10
2023,04,25,01,24,4.00
2023,04,25,01,25,4.00
2023,04,25,01,26,4.00
2023,04,25,01,27,4.00
2023,04,25,01,28,4.00
2023,04,25,01,29,4.00
2023,04,25,01,30,4.00
2023,04,25,01,31,4.00
2023,04,25,01,32,4.00
2023,04,25,01,33,4.00
2023,04,25,01,34,4.00
2023,04,25,01,35,4.00
2023,04,25,01,36,4.00
2023,04,25,01,37,4.00
2023,04,25,01,38,4.00
2023,04,25,01,39,4.00
2023,04,25,01,40,3.90
2023,04,25,01,41,3.90
2023,04,25,01,42,3.90
2023,04,25,01,43,3.90
2023,04,25,01,44,3.80
2023,04,25,01,45,3.80
2023,04,25,01,46,3.80
2023,04,25,01,47,3.80
2023,04,25,01,48,3.70
2023,04,25,01,49,3.70
2023,04,25,01,50,3.70
2023,04,25,01,51,3.70
2023,04,25,01,52,3.70
2023,04,25,01,53,3.60
2023,04,25,01,54,3.60
2023,04,25,01,55,3.60
2023,04,25,01,56,3.60
2023,04,25,01,57,3.60
2023,04,25,01,58,3.60
2023,04,25,01,59,3.60
2023,04,25,02,00,3.60
2023,04,25,02,01,3.60
2023,04,25,02,02,3.60
2023,04,25,02,03,3.50
2023,04,25,02,04,3.50
2023,04,25,02,05,3.50
2023,04,25,02,06,3.50
2023,04,25,02,07,3.50
2023,04,25,02,08,3.50
2023,04,25,02,09,3.50
2023,04,25,02,10,3.50
2023,04,25,02,11,3.40
2023,04,25,02,12,3.40
2023,04,25,02,13,3.40
2023,04,25,02,14,3.40
2023,04,25,02,15,3.40
2023,04,25,02,16,3.40
2023,04,25,02,17,3.30
2023,04,25,02,18,3.30
2023,04,25,02,19,3.30
2023,04,25,02,20,3.30
2023,04,25,02,21,3.40
2023,04,25,02,22,3.30
2023,04,25,02,23,3.30
2023,04,25,02,24,3.30
2023,04,25,02,25,3.30
2023,04,25,02,26,3.30
2023,04,25,02,27,3.30
2023,04,25,02,28,3.30
2023,04,25,02,29,3.20
2023,04,25,02,30,3.20
2023,04,25,02,31,3.20
2023,04,25,02,32,3.20
2023,04,25,02,33,3.20
2023,04,25,02,34,3.20
2023,04,25,02,35,3.10
2023,04,25,02,36,3.10
2023,04,25,02,37,3.10
2023,04,25,02,38,3.10
2023,04,25,02,39,3.10
2023,04,25,02,40,3.00
2023,04,25,02,41,3.00
2023,04,25,02,42,3.00
2023,04,25,02,43,3.00
2023,04,25,02,44,3.00
2023,04,25,02,45,3.00
2023,04,25,02,46,2.90
2023,04,25,02,47,2.90
2023,04,25,02,48,2.90
2023,04,25,02,49,2.90
2023,04,25,02,50,2.90
2023,04,25,02,51,2.90
2023,04,25,02,52,2.90
2023,04,25,02,53,2.90
2023,04,25,02,54,2.90
2023,04,25,02,55,2.90
2023,04,25,02,56,2.90
2023,04,25,02,57,2.80
2023,04,25,02,58,2.80
2023,04,25,02,59,2.80
2023,04,25,03,00,2.80
2023,04,25,03,01,2.80
2023,04,25,03,02,2.80
2023,04,25,03,03,2.80
2023,04,25,03,04,2.80
2023,04,25,03,05,2.80
2023,04,25,03,06,2.80
2023,04,25,03,07,2.80
2023,04,25,03,08,2.70
2023,04,25,03,09,2.70
2023,04,25,03,10,2.70
2023,04,25,03,11,2.70
2023,04,25,03,12,2.70
2023,04,25,03,13,2.70
2023,04,25,03,14,2.70
2023,04,25,03,15,2.70
2023,04,25,03,16,2.70
2023,04,25,03,17,2.60
2023,04,25,03,18,2.60
2023,04,25,03,19,2.60
2023,04,25,03,20,2.60
2023,04,25,03,21,2.60
2023,04,25,03,22,2.60
2023,04,25,03,23,2.50
2023,04,25,03,24,2.50
2023,04,25,03,25,2.50
2023,04,25,03,26,2.50
2023,04,25,03,27,2.50
2023,04,25,03,28,2.50
2023,04,25,03,29,2.50
2023,04,25,03,30,2.50
2023,04,25,03,31,2.50
2023,04,25,03,32,2.50
2023,04,25,03,33,2.50
2023,04,25,03,34,2.50
2023,04,25,03,35,2.50
2023,04,25,03,36,2.50
2023,04,25,03,37,2.50
2023,04,25,03,38,2.50
2023,04,25,03,39,2.50
2023,04,25,03,40,2.40
2023,04,25,03,41,2.40
2023,04,25,03,42,2.40
2023,04,25,03,43,2.40
2023,04,25,03,44,2.40
2023,04,25,03,45,2.40
2023,04,25,03,46,2.40
2023,04,25,03,47,2.40
2023,04,25,03,48,2.40
2023,04,25,03,49,2.40
2023,04,25,03,50,2.40
2023,04,25,03,51,2.40
2023,04,25,03,52,2.40
2023,04,25,03,53,2.40
2023,04,25,03,54,2.40
2023,04,25,03,55,2.40
2023,04,25,03,56,2.40
2023,04,25,03,57,2.40
2023,04,25,03,58,2.40
2023,04,25,03,59,2.40
2023,04,25,04,00,2.40
2023,04,25,04,01,2.40
2023,04,25,04,02,2.40
2023,04,25,04,03,2.40
2023,04,25,04,04,2.40
2023,04,25,04,05,2.30
2023,04,25,04,06,2.30
2023,04,25,04,07,2.30
2023,04,25,04,08,2.30
2023,04,25,04,09,2.30
2023,04,25,04,10,2.30
2023,04,25,04,11,2.30
2023,04,25,04,12,2.30
2023,04,25,04,13,2.30
2023,04,25,04,14,2.30
2023,04,25,04,15,2.20
2023,04,25,04,16,2.20
2023,04,25,04,17,2.20
2023,04,25,04,18,2.20
2023,04,25,04,19,2.20
2023,04,25,04,20,2.20
2023,04,25,04,21,2.10
2023,04,25,04,22,2.10
2023,04,25,04,23,2.10
2023,04,25,04,24,2.10
2023,04,25,04,25,2.10
2023,04,25,04,26,2.10
2023,04,25,04,27,2.10
2023,04,25,04,28,2.10
2023,04,25,04,29,2.10
2023,04,25,04,30,2.10
2023,04,25,04,31,2.10
2023,04,25,04,32,2.10
2023,04,25,04,33,2.10
2023,04,25,04,34,2.10
2023,04,25,04,35,2.10
2023,04,25,04,36,2.10
2023,04,25,04,37,2.00
2023,04,25,04,38,2.00
2023,04,25,04,39,2.00
2023,04,25,04,40,2.00
2023,04,25,04,41,1.90
2023,04,25,04,42,1.90
2023,04,25,04,43,1.90
2023,04,25,04,44,1.90
2023,04,25,04,45,1.90
2023,04,25,04,46,1.90
2023,04,25,04,47,1.90
2023,04,25,04,48,1.90
2023,04,25,04,49,1.90
2023,04,25,04,50,1.90
2023,04,25,04,51,1.90
2023,04,25,04,52,1.90
2023,04,25,04,53,1.90
2023,04,25,04,54,1.90
2023,04,25,04,55,1.90
2023,04,25,04,56,1.90
2023,04,25,04,57,1.90
2023,04,25,04,58,1.90
2023,04,25,04,59,1.90
2023,04,25,05,00,1.90
2023,04,25,05,01,1.90
2023,04,25,05,02,1.90
2023,04,25,05,03,1.80
2023,04,25,05,04,1.80
2023,04,25,05,05,1.80
2023,04,25,05,06,1.80
2023,04,25,05,07,1.80
2023,04,25,05,08,1.80
2023,04,25,05,09,1.80
2023,04,25,05,10,1.80
2023,04,25,05,11,1.80
2023,04,25,05,12,1.70
2023,04,25,05,13,1.70
2023,04,25,05,14,1.70
2023,04,25,05,15,1.70
2023,04,25,05,16,1.70
2023,04,25,05,17,1.70
2023,04,25,05,18,1.70
2023,04,25,05,19,1.70
2023,04,25,05,20,1.70
2023,04,25,05,21,1.70
2023,04,25,05,22,1.70
2023,04,25,05,23,1.70
2023,04,25,05,24,1.70
2023,04,25,05,25,1.70
2023,04,25,05,26,1.70
2023,04,25,05,27,1.70
2023,04,25,05,28,1.70
2023,04,25,05,29,1.70
2023,04,25,05,30,1.70
2023,04,25,05,31,1.70
2023,04,25,05,32,1.70
2023,04,25,05,33,1.70
2023,04,25,05,34,1.70
2023,04,25,05,35,1.70
2023,04,25,05,36,1.70
2023,04,25,05,37,1.70
2023,04,25,05,38,1.70
2023,04,25,05,39,1.70
2023,04,25,05,40,1.70
2023,04,25,05,41,1.70
2023,04,25,05,42,1.70
2023,04,25,05,43,1.70
2023,04,25,05,44,1.70
2023,04,25,05,45,1.70
2023,04,25,05,46,1.80
2023,04,25,05,47,1.80
2023,04,25,05,48,1.70
2023,04,25,05,49,1.70
2023,04,25,05,50,1.80
2023,04,25,05,51,1.80
2023,04,25,05,52,1.80
2023,04,25,05,53,1.80
2023,04,25,05,54,1.80
2023,04,25,05,55,1.80
2023,04,25,05,56,1.70
2023,04,25,05,57,1.80
2023,04,25,05,58,1.80
2023,04,25,05,59,1.80
2023,04,25,06,00,1.80
2023,04,25,06,01,1.80
2023,04,25,06,02,1.80
2023,04,25,06,03,1.80
2023,04,25,06,04,1.80
2023,04,25,06,05,1.80
2023,04,25,06,06,1.80
2023,04,25,06,07,1.90
2023,04,25,06,08,1.90
2023,04,25,06,09,1.90
2023,04,25,06,10,1.90
2023,04,25,06,11,1.90
2023,04,25,06,12,1.90
2023,04,25,06,13,1.90
2023,04,25,06,14,1.90
2023,04,25,06,15,1.90
2023,04,25,06,16,1.90
2023,04,25,06,17,1.90
2023,04,25,06,18,1.90
2023,04,25,06,19,2.00
2023,04,25,06,20,2.00
2023,04,25,06,21,2.00
2023,04,25,06,22,2.00
2023,04,25,06,23,2.10
2023,04,25,06,24,2.10
2023,04,25,06,25,2.10
2023,04,25,06,26,2.10
2023,04,25,06,27,2.10
2023,04,25,06,28,2.20
2023,04,25,06,29,2.20
2023,04,25,06,30,2.20
2023,04,25,06,31,2.20
2023,04,25,06,32,2.20
2023,04,25,06,33,2.30
2023,04,25,06,34,2.30
2023,04,25,06,35,2.30
2023,04,25,06,36,2.30
2023,04,25,06,37,2.40
2023,04,25,06,38,2.40
2023,04,25,06,39,2.40
2023,04,25,06,40,2.50
2023,04,25,06,41,2.50
2023,04,25,06,42,2.60
2023,04,25,06,43,2.60
2023,04,25,06,44,2.60
2023,04,25,06,45,2.60
2023,04,25,06,46,2.60
2023,04,25,06,47,2.60
2023,04,25,06,48,2.60
2023,04,25,06,49,2.70
2023,04,25,06,50,2.70
2023,04,25,06,51,2.70
2023,04,25,06,52,2.70
2023,04,25,06,53,2.70
2023,04,25,06,54,2.70
2023,04,25,06,55,2.80
2023,04,25,06,56,2.80
2023,04,25,06,57,2.80
2023,04,25,06,58,2.80
2023,04,25,06,59,2.80
2023,04,25,07,00,2.80
2023,04,25,07,01,2.90
2023,04,25,07,02,2.90
2023,04,25,07,03,2.90
2023,04,25,07,04,2.90
2023,04,25,07,05,3.00
2023,04,25,07,06,3.00
2023,04,25,07,07,3.00
2023,04,25,07,08,3.00
2023,04,25,07,09,3.10
2023,04,25,07,10,3.10
2023,04,25,07,11,3.10
2023,04,25,07,12,3.10
2023,04,25,07,13,3.10
2023,04,25,07,14,3.20
2023,04,25,07,15,3.20
2023,04,25,07,16,3.20
2023,04,25,07,17,3.20
2023,04,25,07,18,3.20
2023,04,25,07,19,3.30
2023,04,25,07,20,3.30
2023,04,25,07,21,3.30
2023,04,25,07,22,3.30
2023,04,25,07,23,3.40
2023,04,25,07,24,3.40
2023,04,25,07,25,3.40
2023,04,25,07,26,3.40
2023,04,25,07,27,3.50
2023,04,25,07,28,3.50
2023,04,25,07,29,3.60
2023,04,25,07,30,3.60
2023,04,25,07,31,3.60
2023,04,25,07,32,3.60
2023,04,25,07,33,3.70
2023,04,25,07,34,3.70
2023,04,25,07,35,3.70
2023,04,25,07,36,3.80
2023,04,25,07,37,3.80
2023,04,25,07,38,3.90
2023,04,25,07,39,3.90
2023,04,25,07,40,3.90
2023,04,25,07,41,4.00
2023,04,25,07,42,4.00
2023,04,25,07,43,4.10
2023,04,25,07,44,4.10
2023,04,25,07,45,4.10
2023,04,25,07,46,4.10
2023,04,25,07,47,4.10
2023,04,25,07,48,4.20
2023,04,25,07,49,4.20
2023,04,25,07,50,4.20
2023,04,25,07,51,4.20
2023,04,25,07,52,4.30
2023,04,25,07,53,4.30
2023,04,25,07,54,4.30
2023,04,25,07,55,4.40
2023,04,25,07,56,4.40
2023,04,25,07,57,4.50
2023,04,25,07,58,4.60
2023,04,25,07,59,4.70
2023,04,25,08,00,4.80
2023,04,25,08,01,4.90
2023,04,25,08,02,5.00
2023,04,25,08,03,5.00
2023,04,25,08,04,5.10
2023,04,25,08,05,5.20
2023,04,25,08,06,5.20
2023,04,25,08,07,5.30
2023,04,25,08,08,5.30
2023,04,25,08,09,5.40
2023,04,25,08,10,5.50
2023,04,25,08,11,5.50
2023,04,25,08,12,5.50
2023,04,25,08,13,5.60
2023,04,25,08,14,5.70
2023,04,25,08,15,5.70
2023,04,25,08,16,5.80
2023,04,25,08,17,5.90
2023,04,25,08,18,6.00
2023,04,25,08,19,6.00
2023,04,25,08,20,6.10
2023,04,25,08,21,6.20
2023,04,25,08,22,6.30
2023,04,25,08,23,6.30
2023,04,25,08,24,6.40
2023,04,25,08,25,6.40
2023,04,25,08,26,6.40
2023,04,25,08,27,6.50
2023,04,25,08,28,6.50
2023,04,25,08,29,6.60
2023,04,25,08,30,6.60
2023,04,25,08,31,6.70
2023,04,25,08,32,6.70
2023,04,25,08,33,6.70
2023,04,25,08,34,6.80
2023,04,25,08,35,6.80
2023,04,25,08,36,6.80
2023,04,25,08,37,6.80
2023,04,25,08,38,6.80
2023,04,25,08,39,6.80
2023,04,25,08,40,6.80
2023,04,25,08,41,6.80
2023,04,25,08,42,6.70
2023,04,25,08,43,6.70
2023,04,25,08,44,6.80
2023,04,25,08,45,6.80
2023,04,25,08,46,6.80
2023,04,25,08,47,6.80
2023,04,25,08,48,6.80
2023,04,25,08,49,6.80
2023,04,25,08,50,6.90
2023,04,25,08,51,6.90
2023,04,25,08,52,6.90
2023,04,25,08,53,7.00
2023,04,25,08,54,7.00
2023,04,25,08,55,7.10
2023,04,25,08,56,7.20
2023,04,25,08,57,7.20
2023,04,25,08,58,7.30
2023,04,25,08,59,7.30
2023,04,25,09,00,7.40
2023,04,25,09,01,7.50
2023,04,25,09,02,7.60
2023,04,25,09,03,7.70
2023,04,25,09,04,7.80
2023,04,25,09,05,7.90
2023,04,25,09,06,8.00
2023,04,25,09,07,8.10
2023,04,25,09,08,8.20
2023,04,25,09,09,8.30
2023,04,25,09,10,8.40
2023,04,25,09,11,8.50
2023,04,25,09,12,8.60
2023,04,25,09,13,8.70
2023,04,25,09,14,8.80
2023,04,25,09,15,8.90
2023,04,25,09,16,8.90
2023,04,25,09,17,8.90
2023,04,25,09,18,8.90
2023,04,25,09,19,8.90
2023,04,25,09,20,9.00
2023,04,25,09,21,9.10
2023,04,25,09,22,9.20
2023,04,25,09,23,9.30
2023,04,25,09,24,9.40
2023,04,25,09,25,9.50
2023,04,25,09,26,9.60
2023,04,25,09,27,9.60
2023,04,25,09,28,9.70
2023,04,25,09,29,9.80
2023,04,25,09,30,9.90
2023,04,25,09,31,10.10
2023,04,25,09,32,10.20
2023,04,25,09,33,10.20
2023,04,25,09,34,10.20
2023,04,25,09,35,10.10
2023,04,25,09,36,10.10
2023,04,25,09,37,10.00
2023,04,25,09,38,10.00
2023,04,25,09,39,10.10
2023,04,25,09,40,10.00
2023,04,25,09,41,10.10
2023,04,25,09,42,10.10
2023,04,25,09,43,10.20
2023,04,25,09,44,10.30
2023,04,25,09,45,10.40
2023,04,25,09,46,10.40
2023,04,25,09,47,10.40
2023,04,25,09,48,10.40
2023,04,25,09,49,10.40
2023,04,25,09,50,10.40
2023,04,25,09,51,10.50
2023,04,25,09,52,10.50
2023,04,25,09,53,10.50
2023,04,25,09,54,10.50
2023,04,25,09,55,10.50
2023,04,25,09,56,10.60
2023,04,25,09,57,10.70
2023,04,25,09,58,10.70
2023,04,25,09,59,10.70
2023,04,25,10,00,10.60
2023,04,25,10,01,10.60
2023,04,25,10,02,10.70
2023,04,25,10,03,10.80
2023,04,25,10,04,10.90
2023,04,25,10,05,11.00
2023,04,25,10,06,11.00
2023,04,25,10,07,11.10
2023,04,25,10,08,11.10
2023,04,25,10,09,11.20
2023,04,25,10,10,11.20
2023,04,25,10,11,11.30
2023,04,25,10,12,11.30
2023,04,25,10,13,11.40
2023,04,25,10,14,11.50
2023,04,25,10,15,11.60
2023,04,25,10,16,11.70
2023,04,25,10,17,11.80
2023,04,25,10,18,11.80
2023,04,25,10,19,11.90
2023,04,25,10,20,12.00
2023,04,25,10,21,12.10
2023,04,25,10,22,12.20
2023,04,25,10,23,12.20
2023,04,25,10,24,12.30
2023,04,25,10,25,12.30
2023,04,25,10,26,12.30
2023,04,25,10,27,12.40
2023,04,25,10,28,12.40
2023,04,25,10,29,12.40
2023,04,25,10,30,12.30
2023,04,25,10,31,12.30
2023,04,25,10,32,12.30
2023,04,25,10,33,12.20
2023,04,25,10,34,12.20
2023,04,25,10,35,12.10
2023,04,25,10,36,12.10
2023,04,25,10,37,12.00
2023,04,25,10,38,12.00
2023,04,25,10,39,11.90
2023,04,25,10,40,11.80
2023,04,25,10,41,11.80
2023,04,25,10,42,11.80
2023,04,25,10,43,11.80
2023,04,25,10,44,11.90
2023,04,25,10,45,12.00
2023,04,25,10,46,12.00
2023,04,25,10,47,12.00
2023,04,25,10,48,12.00
2023,04,25,10,49,12.10
2023,04,25,10,50,12.10
2023,04,25,10,51,12.10
2023,04,25,10,52,12.20
2023,04,25,10,53,12.20
2023,04,25,10,54,12.20
2023,04,25,10,55,12.20
2023,04,25,10,56,12.30
2023,04,25,10,57,12.30
2023,04,25,10,58,12.40
2023,04,25,10,59,12.50
2023,04,25,11,00,12.60
2023,04,25,11,01,12.70
2023,04,25,11,02,12.70
2023,04,25,11,03,12.80
2023,04,25,11,04,12.80
2023,04,25,11,05,12.80
2023,04,25,11,06,12.80
2023,04,25,11,07,12.80
2023,04,25,11,08,12.80
2023,04,25,11,09,12.80
2023,04,25,11,10,12.80
2023,04,25,11,11,12.70
2023,04,25,11,12,12.70
2023,04,25,11,13,12.70
2023,04,25,11,14,12.70
2023,04,25,11,15,12.70
2023,04,25,11,16,12.70
2023,04,25,11,17,12.60
2023,04,25,11,18,12.60
2023,04,25,11,19,12.60
2023,04,25,11,20,12.60
2023,04,25,11,21,12.50
2023,04,25,11,22,12.40
2023,04,25,11,23,12.50
2023,04,25,11,24,12.40
2023,04,25,11,25,12.40
2023,04,25,11,26,12.50
2023,04,25,11,27,12.50
2023,04,25,11,28,12.50
2023,04,25,11,29,12.50
2023,04,25,11,30,12.50
2023,04,25,11,31,12.60
2023,04,25,11,32,12.60
2023,04,25,11,33,12.60
2023,04,25,11,34,12.70
2023,04,25,11,35,12.70
2023,04,25,11,36,12.70
2023,04,25,11,37,12.80
2023,04,25,11,38,12.70
2023,04,25,11,39,12.70
2023,04,25,11,40,12.60
2023,04,25,11,41,12.60
2023,04,25,11,42,12.70
2023,04,25,11,43,12.70
2023,04,25,11,44,12.70
2023,04,25,11,45,12.80
2023,04,25,11,46,12.90
2023,04,25,11,47,12.90
2023,04,25,11,48,12.90
2023,04,25,11,49,12.80
2023,04,25,11,50,12.80
2023,04,25,11,51,12.80
2023,04,25,11,52,12.70
2023,04,25,11,53,12.70
2023,04,25,11,54,12.80
2023,04,25,11,55,12.80
2023,04,25,11,56,12.70
2023,04,25,11,57,12.60
2023,04,25,11,58,12.60
2023,04,25,11,59,12.50
2023,04,25,12,00,12.40
2023,04,25,12,01,12.20
2023,04,25,12,02,12.10
2023,04,25,12,03,12.10
2023,04,25,12,04,12.10
2023,04,25,12,05,12.10
2023,04,25,12,06,12.10
2023,04,25,12,07,12.20
2023,04,25,12,08,12.30
2023,04,25,12,09,12.50
2023,04,25,12,10,12.50
2023,04,25,12,11,12.60
2023,04,25,12,12,12.60
2023,04,25,12,13,12.70
2023,04,25,12,14,12.70
2023,04,25,12,15,12.70
2023,04,25,12,16,12.60
2023,04,25,12,17,12.50
2023,04,25,12,18,12.50
2023,04,25,12,19,12.60
2023,04,25,12,20,12.60
2023,04,25,12,21,12.70
2023,04,25,12,22,12.70
2023,04,25,12,23,12.80
2023,04,25,12,24,12.80
2023,04,25,12,25,12.80
2023,04,25,12,26,12.90
2023,04,25,12,27,12.90
2023,04,25,12,28,13.00
2023,04,25,12,29,13.10
2023,04,25,12,30,13.10
2023,04,25,12,31,13.20
2023,04,25,12,32,13.40
2023,04,25,12,33,13.50
2023,04,25,12,34,13.50
2023,04,25,12,35,13.50
2023,04,25,12,36,13.40
2023,04,25,12,37,13.40
2023,04,25,12,38,13.40
2023,04,25,12,39,13.40
2023,04,25,12,40,13.40
2023,04,25,12,41,13.40
2023,04,25,12,42,13.50
2023,04,25,12,43,13.50
2023,04,25,12,44,13.60
2023,04,25,12,45,13.50
2023,04,25,12,46,13.50
2023,04,25,12,47,13.50
2023,04,25,12,48,13.40
2023,04,25,12,49,13.50
2023,04,25,12,50,13.50
2023,04,25,12,51,13.60
2023,04,25,12,52,13.60
2023,04,25,12,53,13.70
2023,04,25,12,54,13.80
2023,04,25,12,55,13.80
2023,04,25,12,56,13.70
2023,04,25,12,57,13.60
2023,04,25,12,58,13.50
2023,04,25,12,59,13.30
2023,04,25,13,00,13.20
2023,04,25,13,01,13.20
2023,04,25,13,02,13.20
2023,04,25,13,03,13.20
2023,04,25,13,04,13.10
2023,04,25,13,05,13.10
2023,04,25,13,06,13.10
2023,04,25,13,07,13.10
2023,04,25,13,08,13.10
2023,04,25,13,09,13.10
2023,04,25,13,10,13.20
2023,04,25,13,11,13.20
2023,04,25,13,12,13.30
2023,04,25,13,13,13.40
2023,04,25,13,14,13.40
2023,04,25,13,15,13.50
2023,04,25,13,16,13.60
2023,04,25,13,17,13.60
2023,04,25,13,18,13.70
2023,04,25,13,19,13.70
2023,04,25,13,20,13.70
2023,04,25,13,21,13.60
2023,04,25,13,22,13.50
2023,04,25,13,23,13.40
2023,04,25,13,24,13.30
2023,04,25,13,25,13.10
2023,04,25,13,26,13.10
2023,04,25,13,27,13.10
2023,04,25,13,28,13.10
2023,04,25,13,29,13.10
2023,04,25,13,30,13.20
2023,04,25,13,31,13.20
2023,04,25,13,32,13.30
2023,04,25,13,33,13.30
2023,04,25,13,34,13.40
2023,04,25,13,35,13.40
2023,04,25,13,36,13.40
2023,04,25,13,37,13.50
2023,04,25,13,38,13.60
2023,04,25,13,39,13.70
2023,04,25,13,40,13.80
2023,04,25,13,41,13.80
2023,04,25,13,42,13.80
2023,04,25,13,43,13.80
2023,04,25,13,44,13.90
2023,04,25,13,45,13.90
2023,04,25,13,46,13.90
2023,04,25,13,47,13.80
2023,04,25,13,48,13.70
2023,04,25,13,49,13.70
2023,04,25,13,50,13.70
2023,04,25,13,51,13.60
2023,04,25,13,52,13.60
2023,04,25,13,53,13.60
2023,04,25,13,54,13.50
2023,04,25,13,55,13.40
2023,04,25,13,56,13.30
2023,04,25,13,57,13.30
2023,04,25,13,58,13.20
2023,04,25,13,59,13.20
2023,04,25,14,00,13.20
2023,04,25,14,01,13.20
2023,04,25,14,02,13.30
2023,04,25,14,03,13.30
2023,04,25,14,04,13.40
2023,04,25,14,05,13.40
2023,04,25,14,06,13.30
2023,04,25,14,07,13.30
2023,04,25,14,08,13.20
2023,04,25,14,09,13.20
2023,04,25,14,10,13.20
2023,04,25,14,11,13.20
2023,04,25,14,12,13.20
2023,04,25,14,13,13.20
2023,04,25,14,14,13.20
2023,04,25,14,15,13.10
2023,04,25,14,16,13.10
2023,04,25,14,17,13.10
2023,04,25,14,18,13.10
2023,04,25,14,19,13.20
2023,04,25,14,20,13.20
2023,04,25,14,21,13.10
2023,04,25,14,22,13.10
2023,04,25,14,23,13.10
2023,04,25,14,24,13.10
2023,04,25,14,25,13.10
2023,04,25,14,26,13.00
2023,04,25,14,27,13.00
2023,04,25,14,28,12.90
2023,04,25,14,29,12.90
2023,04,25,14,30,12.90
2023,04,25,14,31,12.90
2023,04,25,14,32,12.90
2023,04,25,14,33,12.90
2023,04,25,14,34,12.90
2023,04,25,14,35,13.00
2023,04,25,14,36,13.00
2023,04,25,14,37,13.00
2023,04,25,14,38,12.90
2023,04,25,14,39,13.00
2023,04,25,14,40,13.10
2023,04,25,14,41,13.10
2023,04,25,14,42,13.20
2023,04,25,14,43,13.20
2023,04,25,14,44,13.30
2023,04,25,14,45,13.40
2023,04,25,14,46,13.40
2023,04,25,14,47,13.50
2023,04,25,14,48,13.60
2023,04,25,14,49,13.70
2023,04,25,14,50,13.70
2023,04,25,14,51,13.70
2023,04,25,14,52,13.60
2023,04,25,14,53,13.60
2023,04,25,14,54,13.60
2023,04,25,14,55,13.60
2023,04,25,14,56,13.60
2023,04,25,14,57,13.60
2023,04,25,14,58,13.60
2023,04,25,14,59,13.60
2023,04,25,15,00,13.60
2023,04,25,15,01,13.60
2023,04,25,15,02,13.60
2023,04,25,15,03,13.60
2023,04,25,15,04,13.50
2023,04,25,15,05,13.50
2023,04,25,15,06,13.60
2023,04,25,15,07,13.60
2023,04,25,15,08,13.60
2023,04,25,15,09,13.60
2023,04,25,15,10,13.60
2023,04,25,15,11,13.50
2023,04,25,15,12,13.40
2023,04,25,15,13,13.40
2023,04,25,15,14,13.30
2023,04,25,15,15,13.20
2023,04,25,15,16,13.20
2023,04,25,15,17,13.10
2023,04,25,15,18,13.10
2023,04,25,15,19,13.20
2023,04,25,15,20,13.10
2023,04,25,15,21,13.10
2023,04,25,15,22,13.10
2023,04,25,15,23,13.10
2023,04,25,15,24,13.10
2023,04,25,15,25,13.20
2023,04,25,15,26,13.20
2023,04,25,15,27,13.20
2023,04,25,15,28,13.30
2023,04,25,15,29,13.30
2023,04,25,15,30,13.30
2023,04,25,15,31,13.30
2023,04,25,15,32,13.30
2023,04,25,15,33,13.30
2023,04,25,15,34,13.30
2023,04,25,15,35,13.40
2023,04,25,15,36,13.50
2023,04,25,15,37,13.60
2023,04,25,15,38,13.70
2023,04,25,15,39,13.80
2023,04,25,15,40,13.80
2023,04,25,15,41,13.90
2023,04,25,15,42,14.00
2023,04,25,15,43,14.00
2023,04,25,15,44,14.10
2023,04,25,15,45,14.20
2023,04,25,15,46,14.30
2023,04,25,15,47,14.20
2023,04,25,15,48,14.10
2023,04,25,15,49,14.00
2023,04,25,15,50,14.00
2023,04,25,15,51,13.90
2023,04,25,15,52,13.80
2023,04,25,15,53,13.70
2023,04,25,15,54,13.70
2023,04,25,15,55,13.70
2023,04,25,15,56,13.70
2023,04,25,15,57,13.70
2023,04,25,15,58,13.80
2023,04,25,15,59,13.70
2023,04,25,16,00,13.70
2023,04,25,16,01,13.60
2023,04,25,16,02,13.50
2023,04,25,16,03,13.40
2023,04,25,16,04,13.30
2023,04,25,16,05,13.30
2023,04,25,16,06,13.30
2023,04,25,16,07,13.30
2023,04,25,16,08,13.20
2023,04,25,16,09,13.10
2023,04,25,16,10,13.10
2023,04,25,16,11,13.10
2023,04,25,16,12,13.10
2023,04,25,16,13,13.10
2023,04,25,16,14,13.00
2023,04,25,16,15,13.00
2023,04,25,16,16,13.00
2023,04,25,16,17,13.00
2023,04,25,16,18,13.00
2023,04,25,16,19,12.90
2023,04,25,16,20,12.90
2023,04,25,16,21,13.00
2023,04,25,16,22,13.10
2023,04,25,16,23,13.10
2023,04,25,16,24,13.00
2023,04,25,16,25,13.00
2023,04,25,16,26,12.90
2023,04,25,16,27,12.90
2023,04,25,16,28,12.90
2023,04,25,16,29,12.90
2023,04,25,16,30,12.90
2023,04,25,16,31,12.90
2023,04,25,16,32,13.00
2023,04,25,16,33,13.10
2023,04,25,16,34,13.10
2023,04,25,16,35,13.10
2023,04,25,16,36,13.20
2023,04,25,16,37,13.20
2023,04,25,16,38,13.20
2023,04,25,16,39,13.20
2023,04,25,16,40,13.20
2023,04,25,16,41,13.20
2023,04,25,16,42,13.30
2023,04,25,16,43,13.30
2023,04,25,16,44,13.20
2023,04,25,16,45,13.20
2023,04,25,16,46,13.20
2023,04,25,16,47,13.20
2023,04,25,16,48,13.20
2023,04,25,16,49,13.20
2023,04,25,16,50,13.20
2023,04,25,16,51,13.20
2023,04,25,16,52,13.10
2023,04,25,16,53,13.10
2023,04,25,16,54,13.10
2023,04,25,16,55,13.00
2023,04,25,16,56,13.00
2023,04,25,16,57,12.90
2023,04,25,16,58,12.90
2023,04,25,16,59,13.00
2023,04,25,17,00,13.00
2023,04,25,17,01,12.90
2023,04,25,17,02,12.90
2023,04,25,17,03,12.90
2023,04,25,17,04,12.80
2023,04,25,17,05,12.90
2023,04,25,17,06,12.80
2023,04,25,17,07,12.80
2023,04,25,17,08,12.80
2023,04,25,17,09,12.80
2023,04,25,17,10,12.80
2023,04,25,17,11,12.80
2023,04,25,17,12,12.80
2023,04,25,17,13,12.80
2023,04,25,17,14,12.80
2023,04,25,17,15,12.80
2023,04,25,17,16,12.90
2023,04,25,17,17,12.90
2023,04,25,17,18,12.90
2023,04,25,17,19,12.90
2023,04,25,17,20,12.90
2023,04,25,17,21,13.00
2023,04,25,17,22,13.00
2023,04,25,17,23,13.10
2023,04,25,17,24,13.10
2023,04,25,17,25,13.00
2023,04,25,17,26,13.00
2023,04,25,17,27,12.90
2023,04,25,17,28,12.90
2023,04,25,17,29,12.90
2023,04,25,17,30,13.00
2023,04,25,17,31,13.10
2023,04,25,17,32,13.10
2023,04,25,17,33,13.10
2023,04,25,17,34,13.10
2023,04,25,17,35,13.10
2023,04,25,17,36,13.10
2023,04,25,17,37,13.10
2023,04,25,17,38,13.10
2023,04,25,17,39,13.10
2023,04,25,17,40,13.00
2023,04,25,17,41,13.00
2023,04,25,17,42,13.00
2023,04,25,17,43,12.90
2023,04,25,17,44,12.90